sat.trackr.live / text

‹ back to catalog

2025-013B

NORAD 62730 · 2025-013B

PAYLOAD ACTIVE UNKNOWN

§ Identity

Operator
Country
PRC
Launch date
2025-01-20
Launch site
JSC
Launch vehicle
Mass (kg)
RCS (m²)

External: N2YO · Heavens-Above · Gunter

§ Orbital elements

Epoch: 2026-09-22T22:00:28.902816Z

Period
95.25 min
Inclination
97.6645°
Eccentricity
0.0014077
Mean motion
15.11845504 rev/d
Perigee alt
520.8 km
Apogee alt
540.3 km
Semi-major
6,908.7 km
B*
1.1792e-4
RAAN
75.5012°
Arg perigee
39.6235°
Mean anomaly
320.6021°
Rev number
9,209

§ Raw data

2025-013B1 62730U 25013B   26265.91700119  .00001953  00000+0  11792-3 0  99982 62730  97.6645  75.5012 0014077  39.6235 320.6021 15.11845504 92092

JSON: /api/v1/satellites/62730 · /tle

For live sub-satellite position, see the globe view (requires WebGL).

§ Visibility from observer

Set your observer location to see the next 7 days of passes ≥ 10°. The values pass through the URL so the page stays shareable.

No JS? Fill the form by hand. The geolocation button needs JavaScript.